SCP
1 1 0 0 0 0 0 0 0 0 0 0 0 0 0 0 0 0 0 0 0 0
1 1 0 0 0 0 0 0 0 0 0 0 0 0 0 0 0 0 0 0 0 0
0 0 0 0 0 0 0 0 0 0 0 0 0 0 0 0 0 0 0 0 0 0
0 0 0 0 0 0 0 0 0 0 0 0 0 0 0 0 0 0 0 0 0 0
0 0 0 0 0 0 0 0 0 0 0 0 0 0 0 0 0 0 0 0 0 0
0 0 0 0 0 0 0 0 0 0 0 0 0 0 0 0 0 0 0 0 0 0
0 0 0 0 0 0 0 0 0 0 0 0 0 0 0 0 0 0 0 0 0 0
0 0 0 0 0 0 0 0 0 0 0 0 0 0 0 0 0 0 0 0 0 0
0 0 0 0 0 0 0 0 0 0 0 0 0 -0 0 0 0 0 0 0 0 0
0 0 0 0 0 0 0 0 0 0 0 0 0 0 0 0 0 0 0 0 0 0
0 0 0 0 0 0 0 0 0 0 0 0 0 0 0 0 0 0 0 0 0 0
0 0 0 0 0 0 0 0 0 0 0 0 0 0 0 0 0 0 0 0 0 0
0 0 0 0 0 0 0 0 0 0 0 0 0 0 0 0 0 0 0 0 0 0
0 0 0 0 0 0 0 0 0 0 0 0 0 0 0 0 0 0 0 0 0 0
Wind_Speed_500mb
49 48 50 51 49 45 39 36 41 49 61 61 68 76 74 80 79 71 80 112 96 87
53 49 52 49 47 37 34 43 45 50 50 63 71 76 80 79 93 79 85 107 99 90
52 51 52 49 43 41 48 50 50 49 52 56 64 67 76 87 87 74 88 97 110 87
57 55 48 42 37 42 45 42 42 45 54 56 62 70 67 77 65 70 96 91 105 97
52 43 37 33 37 35 35 32 33 38 40 46 56 60 81 81 68 70 84 94 104 84
35 36 32 29 25 22 23 25 26 23 23 29 46 63 62 69 67 70 83 87 84 78
28 30 29 23 20 18 17 17 24 20 11 18 27 54 74 75 68 80 85 86 69 66
24 23 20 19 17 17 19 18 25 22 15 17 18 29 65 64 59 62 79 73 69 68
25 23 20 19 16 17 17 17 22 27 27 28 23 24 25 28 49 61 60 51 52 55
31 21 36 29 29 31 30 28 28 30 35 36 32 34 35 32 33 41 49 48 49 56
31 32 39 37 31 25 22 28 38 37 40 41 36 26 32 42 43 47 54 58 61 63
30 35 33 31 38 34 29 25 25 28 29 28 29 28 26 30 41 43 46 48 46 47
19 27 36 36 34 32 30 31 27 28 25 24 23 28 27 32 43 46 40 36 36 42
33 36 32 37 35 34 33 32 29 25 23 19 15 18 25 30 36 37 39 34 29 24
Wind_Direction_500mb
227 224 233 233 233 229 236 249 242 236 229 228 227 226 234 218 220 220 216 205 200 194
209 222 218 226 230 231 246 258 255 245 234 229 231 233 232 223 223 215 213 206 201 194
209 207 217 224 227 236 251 246 251 239 234 232 238 227 235 217 207 214 206 208 205 202
211 216 216 217 231 239 250 245 239 242 234 234 240 242 220 210 216 217 218 214 205 204
210 210 216 223 235 243 243 240 241 229 232 231 232 228 231 212 225 208 214 205 201 197
203 212 217 226 244 237 231 233 231 207 222 228 229 219 221 219 207 212 211 196 194 198
212 204 215 230 243 237 223 219 191 173 182 214 223 219 216 218 216 208 208 194 198 202
189 198 214 234 217 214 213 215 196 188 172 176 183 206 217 215 214 208 198 199 205 210
185 192 198 205 211 203 194 197 203 207 203 199 204 200 188 186 191 193 192 209 219 211
186 197 192 195 189 204 202 198 201 214 217 220 230 227 221 206 199 198 207 217 227 235
182 197 186 184 191 191 189 201 206 206 209 215 220 223 221 212 218 218 216 221 228 239
146 183 187 182 186 201 198 204 178 176 176 191 199 214 214 210 213 219 217 216 217 220
102 146 182 176 172 174 177 182 178 176 171 175 180 190 193 200 209 203 195 196 208 216
81 95 118 143 143 143 138 138 134 140 138 140 157 187 201 194 192 194 193 192 193 197
Wind_Speed_850mb
49 48 50 51 49 45 39 36 41 49 61 61 68 76 74 80 79 71 80 112 96 87
53 49 52 49 47 37 34 43 45 50 50 63 71 76 80 79 93 79 85 107 99 90
52 51 52 49 43 41 48 50 50 49 52 56 64 67 76 87 87 74 88 97 110 87
57 55 48 42 37 42 45 42 42 45 54 56 62 70 67 77 65 70 96 91 105 97
52 43 37 33 37 35 35 32 33 38 40 46 56 60 81 81 68 70 84 94 104 84
35 36 32 29 25 22 23 25 26 23 23 29 46 63 62 69 67 70 83 87 84 78
28 30 29 23 20 18 17 17 24 20 11 18 27 54 74 75 68 80 85 86 69 66
24 23 20 19 17 17 19 18 25 22 15 17 18 29 65 64 59 62 79 73 69 68
25 23 20 19 16 17 17 17 22 27 27 28 23 24 25 28 49 61 60 51 52 55
31 21 36 29 29 31 30 28 28 30 35 36 32 34 35 32 33 41 49 48 49 56
31 32 39 37 31 25 22 28 38 37 40 41 36 26 32 42 43 47 54 58 61 63
30 35 33 31 38 34 29 25 25 28 29 28 29 28 26 30 41 43 46 48 46 47
19 27 36 36 34 32 30 31 27 28 25 24 23 28 27 32 43 46 40 36 36 42
33 36 32 37 35 34 33 32 29 25 23 19 15 18 25 30 36 37 39 34 29 24
Wind_Direction_850mb
227 224 233 233 233 229 236 249 242 236 229 228 227 226 234 218 220 220 216 205 200 194
209 222 218 226 230 231 246 258 255 245 234 229 231 233 232 223 223 215 213 206 201 194
209 207 217 224 227 236 251 246 251 239 234 232 238 227 235 217 207 214 206 208 205 202
211 216 216 217 231 239 250 245 239 242 234 234 240 242 220 210 216 217 218 214 205 204
210 210 216 223 235 243 243 240 241 229 232 231 232 228 231 212 225 208 214 205 201 197
203 212 217 226 244 237 231 233 231 207 222 228 229 219 221 219 207 212 211 196 194 198
212 204 215 230 243 237 223 219 191 173 182 214 223 219 216 218 216 208 208 194 198 202
189 198 214 234 217 214 213 215 196 188 172 176 183 206 217 215 214 208 198 199 205 210
185 192 198 205 211 203 194 197 203 207 203 199 204 200 188 186 191 193 192 209 219 211
186 197 192 195 189 204 202 198 201 214 217 220 230 227 221 206 199 198 207 217 227 235
182 197 186 184 191 191 189 201 206 206 209 215 220 223 221 212 218 218 216 221 228 239
146 183 187 182 186 201 198 204 178 176 176 191 199 214 214 210 213 219 217 216 217 220
102 146 182 176 172 174 177 182 178 176 171 175 180 190 193 200 209 203 195 196 208 216
81 95 118 143 143 143 138 138 134 140 138 140 157 187 201 194 192 194 193 192 193 197